Tracking 19832 objects as of 24-Aug-2019
HD Live streaming from Space Station
objects crossing your sky now

CZ-4C DEB

Track CZ-4C DEB now!
10-day predictions


NORAD ID: 43629
Int'l Code: 2013-065G
Perigee: 966.6 km
Apogee: 1,149.5 km
Inclination: 100.9 °
Period: 106.2 minutes
Semi major axis: 7429 km
RCS: Unknown
Launch date: November 20, 2013
Source: People's Republic of China (PRC)
Launch site: Taiyaun Space Center, China (TSC)

Note: This is SATELLITE DEBRIS
aabbcc
Your satellite tracking list
Your tracking list is empty




NASA's NSSDC Master Catalog

Two Line Element Set (TLE):
1 43629U 13053F   19235.47323646 +.00000990 +00000-0 +14238-2 0  9999
2 43629 100.9225 074.2536 0123078 061.6342 299.7138 13.55817929049883
Source of the keplerian elements: AFSPC